Weather History for KABQ - February, 2012

Change the Weather History Date:

Friday, February 3, 2012

  Actual Average Record
Temperature  
Mean Temperature 39 °F 39 °F  
Max Temperature 47 °F 50 °F 66 °F (1934)
Min Temperature 31 °F 28 °F -7 °F (2011)
Degree Days  
Heating Degree Days 26 26  
Month to date heating degree days 73 79  
Since 1 July heating degree days 2564 2721  
Cooling Degree Days 0 0  
Month to date cooling degree days 0 0  
Year to date cooling degree days 0 0  
Moisture  
Dew Point 28 °F    
Average Humidity 67    
Maximum Humidity 96    
Minimum Humidity 37    
Precipitation  
Precipitation T in 0.02 in 0.18 in (1983)
Month to date precipitation T 0.05  
Year to date precipitation 0.40 0.43  
Snow  
Snow T in - - ()
Month to date snowfall T  
Since 1 July snowfall 4.8  
Snow Depth 0.00 in    
Sea Level Pressure  
Sea Level Pressure 30.03 in    
Wind  
Wind Speed 6 mph (North)    
Max Wind Speed 18 mph    
Max Gust Speed 24 mph    
Visibility 7 miles    
Events      
T = Trace of Precipitation, MM = Missing Value Source: NWS Daily Summary

Daily Weather History Graph

Daily Weather History Graph

Search for Another Location

Airport or City:

Trip Planner

Search our weather history database for the weather conditions in past years. The results will help you decide how hot, cold, wet, or windy it might be!

Date:

Astronomy

Feb. 03, 2012 Rise Set
Actual Time 7:04 AM MST 5:36 PM MST
Civil Twilight 6:37 AM MST 6:03 PM MST
Nautical Twilight 6:07 AM MST 6:33 PM MST
Astronomical Twilight 5:37 AM MST 7:03 PM MST
Moon 1:45 PM MST (2/3) 3:37 AM MST (2/3)
Length of Visible Light 11h 25m
Length of Day
10h 32m
Waxing Gibbous, 82% of the Moon is Illuminated
Feb 3
Waxing Gibbous
Feb 7
Full
Feb 14
Last Quarter
Feb 21
New
Feb 29
First Quarter

Hourly Weather History & Observations

Time (MST) Temp. Windchill Dew Point Humidity Pressure Visibility Wind Dir Wind Speed Gust Speed Precip Events Conditions
12:27 AM 37.4 °F 32.1 °F 30.2 °F 75% 29.93 in 10.0 mi SSW 6.9 mph - N/A   Overcast
12:56 AM 36.0 °F 29.6 °F 30.0 °F 79% 29.89 in 10.0 mi SSE 8.1 mph - N/A   Scattered Clouds
1:56 AM 35.1 °F 31.0 °F 30.0 °F 82% 29.91 in 10.0 mi WSW 4.6 mph - N/A   Overcast
2:23 AM 35.6 °F 32.8 °F 30.2 °F 81% 29.96 in 10.0 mi WNW 3.5 mph - N/A   Overcast
2:42 AM 35.6 °F 32.8 °F 30.2 °F 81% 29.96 in 9.0 mi West 3.5 mph - N/A   Overcast
2:56 AM 35.1 °F 31.0 °F 30.9 °F 85% 29.91 in 10.0 mi North 4.6 mph - 0.00 in   Overcast
3:23 AM 33.8 °F 27.7 °F 30.2 °F 87% 29.96 in 10.0 mi North 6.9 mph - N/A   Mostly Cloudy
3:40 AM 33.8 °F 28.6 °F 32.0 °F 93% 29.97 in 10.0 mi North 5.8 mph - N/A   Mostly Cloudy
3:56 AM 34.0 °F 29.8 °F 32.0 °F 92% 29.93 in 10.0 mi NNE 4.6 mph - N/A   Overcast
4:56 AM 34.0 °F - 30.0 °F 85% 29.94 in 10.0 mi Calm Calm - N/A   Scattered Clouds
5:56 AM 32.0 °F - 28.9 °F 88% 29.98 in 6.0 mi Calm Calm - N/A   Mostly Cloudy
6:32 AM 32.0 °F 28.7 °F 30.2 °F 93% 30.01 in 4.0 mi WNW 3.5 mph - N/A   Overcast
6:37 AM 32.0 °F 28.7 °F 30.2 °F 93% 30.02 in 2.5 mi NW 3.5 mph - N/A   Overcast
6:47 AM 33.8 °F - 32.0 °F 93% 30.02 in 1.8 mi Calm Calm - N/A   Overcast
6:56 AM 33.1 °F 30.0 °F 30.9 °F 92% 30.01 in 1.8 mi NW 3.5 mph - N/A   Overcast
7:07 AM 33.8 °F - 32.0 °F 93% 30.03 in 2.5 mi Calm Calm - N/A   Overcast
7:13 AM 33.8 °F 30.8 °F 32.0 °F 93% 30.03 in 1.5 mi NW 3.5 mph - N/A   Overcast
7:17 AM 33.8 °F 30.8 °F 30.2 °F 87% 30.03 in 0.8 mi NW 3.5 mph - N/A   Overcast
7:31 AM 33.8 °F 30.8 °F 32.0 °F 93% 30.04 in 0.8 mi NNW 3.5 mph - N/A   Overcast
7:39 AM 33.8 °F 29.6 °F 32.0 °F 93% 30.04 in 1.5 mi North 4.6 mph - N/A   Overcast
7:47 AM 33.8 °F 28.6 °F 32.0 °F 93% 30.04 in 2.5 mi North 5.8 mph - N/A   Overcast
7:56 AM 33.1 °F 27.7 °F 30.9 °F 92% 30.04 in 2.5 mi North 5.8 mph - N/A   Overcast
8:05 AM 33.8 °F 28.6 °F 30.2 °F 87% 30.05 in 0.8 mi North 5.8 mph - N/A   Overcast
8:15 AM 33.8 °F 28.6 °F 30.2 °F 87% 30.06 in 0.8 mi North 5.8 mph - N/A   Overcast
8:28 AM 33.8 °F 28.6 °F 32.0 °F 93% 30.06 in 1.5 mi NNE 5.8 mph - N/A   Mostly Cloudy
8:42 AM 33.8 °F 28.6 °F 32.0 °F 93% 30.07 in 4.0 mi North 5.8 mph - N/A   Mostly Cloudy
8:56 AM 35.1 °F 30.1 °F 30.9 °F 85% 30.06 in 5.0 mi North 5.8 mph - N/A   Mostly Cloudy
9:56 AM 36.0 °F 33.3 °F 30.0 °F 79% 30.08 in 10.0 mi NNW 3.5 mph - N/A   Scattered Clouds
10:56 AM 39.9 °F 35.1 °F 27.0 °F 60% 30.07 in 10.0 mi NW 6.9 mph - N/A   Partly Cloudy
11:56 AM 43.0 °F 37.2 °F 27.0 °F 53% 30.05 in 10.0 mi WNW 10.4 mph - N/A   Scattered Clouds
12:56 PM 45.0 °F 42.6 °F 24.1 °F 44% 30.03 in 10.0 mi Variable 4.6 mph - N/A   Scattered Clouds
1:56 PM 45.0 °F - 19.9 °F 37% 30.04 in 10.0 mi Calm Calm - N/A   Mostly Cloudy
2:56 PM 45.0 °F - 19.9 °F 37% 30.04 in 10.0 mi Calm Calm - N/A   Mostly Cloudy
3:56 PM 46.0 °F 43.9 °F 21.0 °F 37% 30.05 in 10.0 mi NW 4.6 mph - N/A   Scattered Clouds
4:56 PM 46.0 °F - 21.0 °F 37% 30.07 in 10.0 mi Calm Calm - N/A   Scattered Clouds
5:56 PM 41.0 °F 37.1 °F 24.1 °F 51% 30.12 in 10.0 mi East 5.8 mph - N/A   Scattered Clouds
6:56 PM 39.0 °F 34.0 °F 24.1 °F 55% 30.14 in 10.0 mi East 6.9 mph - N/A   Scattered Clouds
7:56 PM 39.9 °F 33.9 °F 24.1 °F 53% 30.15 in 10.0 mi NE 9.2 mph - N/A   Partly Cloudy
8:56 PM 39.9 °F 34.5 °F 23.0 °F 51% 30.16 in 10.0 mi ENE 8.1 mph - N/A   Scattered Clouds
9:56 PM 37.9 °F 29.2 °F 23.0 °F 55% 30.18 in 10.0 mi East 15.0 mph - N/A   Scattered Clouds
10:56 PM 37.0 °F 27.4 °F 19.9 °F 50% 30.17 in 10.0 mi East 17.3 mph - N/A   Scattered Clouds
11:56 PM 36.0 °F 26.3 °F 19.0 °F 50% 30.17 in 10.0 mi East 16.1 mph - N/A   Scattered Clouds